Theta_e
301 302 302 302 302 302 302 302 303 303 302 302 302 301 300 300 300 299 299 298 299 299 299 299 299 299 299 299 299 299 299 299 299 299 299 299 298 298 298 298 298 298 298 298 298 298 298 298 298 299 299 299 298 298 298 298 299 298 298 299 299 299 299 300 300 300 300 299 298 298 298 299 298 298 299 299 299 299 299 299 300 300 301 302 302
299 300 300 300 300 300 300 300 300 300 300 299 299 298 297 297 297 297 297 297 297 297 297 297 297 298 298 297 297 297 297 297 297 297 297 297 297 297 297 297 296 296 297 297 297 297 296 297 297 297 297 297 297 296 297 297 297 297 297 297 298 298 298 298 298 298 298 297 297 297 297 298 297 298 298 298 298 298 298 298 298 299 300 299 299
298 298 298 298 298 298 298 298 298 297 297 297 296 296 296 295 296 296 296 295 296 296 296 296 296 296 296 296 295 295 295 295 295 295 295 295 295 295 295 295 295 295 295 296 295 295 295 295 295 295 295 295 294 294 295 295 295 296 296 296 296 296 296 296 296 296 296 296 296 296 296 296 296 296 296 296 297 297 296 296 297 297 296 295 295
296 297 296 296 296 296 296 296 296 296 295 295 295 294 294 294 294 295 295 294 295 295 295 295 295 294 294 294 294 293 293 293 293 293 293 293 293 293 293 293 294 294 294 294 294 294 294 294 294 294 294 293 293 293 293 294 294 294 294 294 294 294 294 294 294 295 295 295 295 295 295 295 295 294 294 295 295 294 294 295 295 293 293 293 294
294 295 295 295 295 295 295 294 294 294 294 294 294 293 293 293 293 293 293 293 294 293 293 293 293 292 292 292 292 292 292 292 292 292 292 292 292 292 292 293 293 293 293 293 293 293 292 292 293 292 292 292 291 291 292 292 292 293 293 292 292 292 292 293 293 293 293 294 294 294 294 294 293 293 294 294 293 293 293 294 293 292 292 292 292
293 293 293 293 293 293 293 293 293 293 293 292 293 293 292 292 292 292 292 293 293 292 292 292 292 291 291 291 291 291 291 291 291 291 292 292 292 292 292 292 292 292 292 292 292 292 292 291 291 291 291 291 290 290 290 291 291 291 291 290 290 290 291 291 292 292 293 293 293 293 293 292 292 293 292 292 292 293 293 293 292 291 291 291 290
291 291 291 291 290 290 290 291 291 291 291 291 291 292 292 292 292 292 292 292 291 291 291 291 291 290 290 290 290 290 290 291 291 291 291 291 291 291 291 291 291 291 291 291 291 291 290 290 290 289 289 289 289 289 289 289 290 290 289 288 289 289 290 290 291 291 292 291 291 291 291 291 291 291 291 291 291 292 292 292 291 290 290 290 290
289 289 288 288 288 288 289 289 289 290 290 290 290 290 290 291 291 290 291 290 290 290 290 290 290 290 290 290 290 290 290 290 290 290 290 290 291 291 290 290 290 290 290 290 290 289 288 288 288 288 287 287 287 287 287 287 288 288 288 287 288 288 289 289 290 290 290 290 290 290 290 290 290 290 290 290 290 291 290 290 289 289 289 289 289
287 287 287 287 286 287 287 287 288 288 288 289 289 289 289 289 289 289 289 289 289 289 289 289 289 289 289 289 288 289 289 289 289 290 290 290 290 290 290 290 290 289 289 289 290 289 288 288 288 287 286 286 286 286 285 286 286 286 286 286 287 287 288 288 289 289 289 289 289 289 289 289 289 289 289 289 289 289 289 288 288 288 288 288 288
285 285 285 285 285 286 286 286 286 287 287 287 287 288 288 288 288 288 288 288 288 288 288 288 287 287 287 287 287 287 288 288 289 289 289 289 289 289 289 289 289 289 288 288 288 289 289 288 288 287 286 286 286 285 285 285 286 286 286 286 287 287 287 288 288 288 288 288 288 288 288 288 288 289 289 289 289 288 288 288 288 288 288 288 288
283 283 284 284 285 285 285 285 285 285 286 286 286 286 286 287 287 287 287 287 287 287 287 286 286 285 285 285 285 285 285 287 288 288 288 288 288 288 288 288 287 287 287 287 287 288 288 288 288 286 285 285 284 283 283 284 285 285 285 286 287 287 287 287 287 287 288 288 288 288 288 288 288 288 288 288 288 287 287 287 288 288 288 288 288
281 282 282 283 283 284 284 284 284 284 284 285 285 285 285 286 286 286 286 286 286 286 285 285 284 284 283 283 283 283 283 285 286 287 287 287 287 287 287 286 285 285 286 286 286 286 286 287 286 285 284 284 282 281 282 283 283 284 284 285 286 286 286 287 287 287 288 288 288 288 288 288 288 287 287 287 287 286 287 287 287 288 288 288 288
280 281 281 281 282 282 283 283 283 283 283 284 284 284 284 285 285 285 285 285 285 285 285 284 283 282 282 282 282 282 282 283 284 286 286 286 286 286 285 284 284 285 285 285 285 285 285 285 285 285 284 283 281 281 281 281 282 283 283 284 285 285 285 286 287 288 288 288 288 287 287 287 287 286 286 286 286 286 286 287 287 287 288 288 288
279 280 280 280 281 281 282 282 282 282 282 283 283 283 283 284 284 284 284 284 284 284 284 284 283 282 281 281 281 282 282 282 282 283 284 284 284 284 284 284 284 284 284 284 284 283 284 284 284 284 284 282 280 281 281 280 281 282 282 283 283 284 284 285 286 287 287 286 287 286 286 286 286 285 285 285 286 286 287 287 287 287 288 288 288
278 278 279 279 280 280 281 281 281 281 282 282 282 282 282 283 283 283 283 283 283 284 284 283 282 280 280 280 280 281 281 281 281 282 283 283 283 283 283 284 284 282 282 283 283 282 282 283 283 284 283 281 280 280 281 280 280 280 281 281 282 282 283 285 286 286 286 286 285 285 285 285 285 285 285 286 286 286 287 287 287 288 288 288 288
276 276 277 278 279 279 280 280 280 280 281 281 281 281 282 282 282 282 282 282 282 283 283 282 281 280 279 280 280 280 280 280 281 282 283 283 283 282 282 282 282 281 281 283 283 282 281 281 282 282 281 280 280 280 281 280 279 279 280 280 281 282 283 284 285 284 283 283 283 283 284 284 285 285 285 286 286 286 287 287 288 288 288 288 289
274 275 275 276 277 278 278 279 279 280 280 280 280 280 281 281 281 281 281 281 282 282 282 282 282 280 279 279 279 279 279 279 280 281 282 282 282 282 282 282 281 281 281 282 282 282 281 281 281 280 279 279 280 280 280 280 279 279 280 280 280 281 282 283 282 281 280 280 281 282 283 284 285 285 285 285 286 287 287 287 288 288 288 289 289
273 273 274 274 275 276 277 278 278 279 279 279 279 280 280 280 280 280 281 281 281 281 282 282 281 280 280 279 278 278 278 279 279 280 281 281 281 281 281 281 280 280 280 281 282 282 282 281 281 280 278 278 279 280 280 279 278 278 279 280 280 281 282 281 280 279 280 281 281 282 282 283 284 284 284 285 286 286 286 287 287 287 287 287 288
271 272 273 273 274 275 275 276 277 278 278 278 278 279 279 280 280 280 280 280 280 280 281 281 281 280 279 279 278 277 277 278 279 279 279 280 281 281 280 279 278 278 279 281 281 281 281 281 280 280 279 278 279 279 279 279 278 278 280 281 281 281 281 279 279 280 281 281 281 281 281 281 282 283 284 284 284 284 285 285 284 284 284 285 285
269 270 271 272 273 273 274 275 276 276 277 277 278 278 279 279 279 280 280 280 280 279 279 279 279 279 279 278 277 277 276 277 277 278 278 278 279 279 279 278 277 278 279 280 280 280 281 280 280 280 279 278 278 278 278 279 279 279 280 281 281 280 279 278 279 280 281 281 281 281 280 281 281 282 282 281 281 282 282 282 282 282 282 283 283
268 269 270 271 272 273 273 274 275 275 276 276 277 278 278 279 279 279 280 280 279 279 279 279 278 278 278 277 276 275 275 276 276 277 277 277 277 278 277 276 276 276 277 278 279 279 279 278 278 278 277 277 278 278 278 278 279 280 280 280 280 279 279 279 280 281 281 281 280 280 280 280 280 280 280 280 280 280 280 280 280 280 281 282 282
267 268 269 270 271 272 272 273 274 274 275 276 276 277 278 278 278 279 279 279 279 279 278 278 278 278 277 277 276 275 275 275 275 276 276 276 276 276 276 275 275 275 275 276 277 276 276 276 276 276 276 276 277 277 277 278 278 279 279 278 278 278 279 280 280 280 280 279 279 279 279 279 279 279 279 279 279 279 279 279 280 280 280 281 282
266 268 268 269 269 270 271 272 273 274 274 275 276 276 277 277 278 278 278 278 279 278 278 278 278 278 277 276 276 275 274 274 274 274 274 275 275 275 275 275 275 275 274 275 275 275 275 275 275 275 275 275 276 276 276 277 277 277 277 277 277 277 278 278 278 278 278 278 278 278 278 278 278 278 277 277 278 278 279 278 279 279 280 280 281
265 266 267 268 268 269 270 271 272 273 274 274 275 275 276 276 277 277 277 277 278 278 278 278 278 277 277 276 275 275 274 274 273 273 273 273 274 274 274 274 274 274 274 275 275 274 274 275 274 274 275 275 275 275 275 276 275 275 276 276 276 277 277 277 277 277 276 276 277 277 277 276 276 275 275 275 276 277 277 277 277 278 278 279 279
265 265 266 267 267 268 269 270 271 272 273 273 274 274 275 275 276 276 276 276 276 277 277 277 277 277 276 275 274 274 274 274 273 272 271 271 272 272 272 272 273 274 274 274 274 273 273 274 274 274 275 275 275 274 274 274 274 274 275 276 276 276 276 276 275 275 274 274 275 275 274 274 274 274 274 274 274 275 276 276 276 277 277 277 278
264 265 265 266 267 267 268 269 270 271 272 272 273 273 274 274 274 275 275 275 275 275 276 276 276 276 275 274 274 273 273 273 272 271 270 270 271 271 271 271 272 273 273 273 272 272 272 273 274 274 274 274 274 273 273 273 274 274 274 274 274 274 273 273 273 272 272 273 273 273 272 272 272 272 272 272 273 273 274 274 275 275 276 276 277
263 264 265 265 266 267 267 268 269 270 270 271 271 272 272 273 273 273 273 274 274 274 274 274 274 273 273 273 273 272 272 271 271 270 270 270 270 270 270 271 272 272 272 272 272 272 272 273 273 274 273 273 273 273 272 272 273 273 273 272 272 271 271 270 271 271 271 272 271 271 270 270 270 270 271 271 271 272 272 272 273 273 274 274 276
263 263 264 264 265 266 267 267 268 268 269 270 270 270 271 271 272 272 272 273 273 273 272 272 272 272 272 272 272 271 270 270 270 270 270 270 271 271 271 271 272 271 271 271 272 272 272 273 273 272 272 272 272 272 271 271 272 271 271 270 270 270 269 269 269 270 270 270 269 269 269 269 269 269 269 270 270 270 271 272 272 272 273 274 275
262 262 263 264 264 265 265 266 267 267 268 268 269 269 270 270 271 271 271 272 272 272 271 271 270 270 270 270 270 270 269 269 270 270 270 271 271 271 271 271 271 271 271 271 272 272 272 272 272 271 271 271 271 270 270 270 270 270 269 269 269 269 268 268 268 268 269 268 268 268 268 268 268 268 269 269 269 270 270 271 271 272 272 273 274
261 261 262 263 263 264 264 265 266 266 267 267 268 269 269 270 270 270 270 270 271 271 270 270 269 269 269 269 269 269 269 269 269 270 270 270 270 270 270 270 270 270 271 271 272 272 271 271 271 270 270 269 269 268 268 268 268 268 267 268 268 268 267 267 267 267 267 267 267 267 267 267 267 267 268 268 269 269 269 270 270 271 271 272 272
260 260 261 262 263 263 264 264 264 265 266 267 267 268 268 268 269 269 269 269 269 269 269 269 269 268 268 268 268 267 268 268 268 269 269 269 269 270 270 270 270 270 271 271 271 271 270 270 269 269 268 268 267 267 267 266 266 266 266 266 266 266 266 266 266 266 266 266 266 266 266 267 267 267 268 268 268 268 268 269 269 270 270 270 271
259 260 260 261 262 262 263 263 263 264 264 265 266 267 267 267 267 267 267 267 267 267 267 267 267 267 267 267 267 266 266 266 267 267 268 268 269 269 269 269 269 270 270 271 271 270 269 268 268 267 267 267 266 266 266 266 265 265 265 264 265 265 265 265 265 265 265 265 266 266 266 266 266 267 267 267 268 267 268 268 268 269 269 269 269
259 259 260 260 261 261 261 262 262 262 263 263 264 265 265 265 265 266 266 266 266 266 266 266 266 266 266 266 266 266 266 266 267 267 268 268 269 269 269 269 269 269 269 270 269 268 267 267 266 265 265 265 265 264 265 264 264 264 264 263 263 264 264 264 264 264 264 265 265 265 265 265 265 266 266 267 267 267 267 267 267 268 268 268 268
258 259 259 260 260 260 260 260 261 261 261 262 262 263 263 263 264 265 265 264 264 265 265 265 265 265 266 266 266 266 266 266 266 266 267 267 268 268 268 268 268 268 268 268 267 266 266 265 265 264 264 264 264 263 263 263 263 263 263 263 263 263 263 263 263 263 263 263 263 264 264 264 265 265 266 266 266 266 266 267 267 267 267 267 267
258 258 259 259 259 259 259 259 260 260 261 261 261 261 262 262 262 263 263 263 263 263 263 264 264 264 265 265 265 265 265 265 265 265 266 266 267 267 268 268 267 267 267 266 265 265 264 264 263 263 263 263 263 263 263 263 263 262 262 262 262 262 262 263 263 262 262 262 263 263 263 264 264 265 265 265 265 265 266 266 266 266 266 267 267
258 258 258 258 258 258 259 259 259 260 260 260 260 261 261 261 261 261 262 262 262 262 262 262 263 263 264 264 265 265 265 265 265 265 265 265 266 267 267 266 265 264 264 264 264 264 264 263 263 263 263 263 263 262 262 262 262 262 262 262 262 262 262 262 262 262 262 262 262 262 262 263 263 264 264 264 265 265 265 265 265 266 266 266 266
257 258 258 258 258 258 259 259 259 259 259 260 260 260 260 260 260 261 261 261 261 261 261 262 263 263 264 264 264 264 264 264 264 265 265 265 265 266 265 264 263 263 263 263 263 263 263 263 263 263 263 262 262 262 262 262 262 262 262 261 261 261 261 261 261 261 261 261 261 261 262 262 263 263 263 264 264 264 265 265 265 265 265 265 265
257 257 258 258 258 258 258 259 259 259 259 259 260 260 260 260 260 260 260 260 260 260 260 261 262 263 263 263 263 263 264 264 264 265 265 264 264 264 264 263 263 262 262 262 262 262 263 263 262 262 262 262 262 262 262 262 261 261 261 261 261 261 261 261 261 261 261 261 261 261 261 261 262 262 262 263 263 264 264 264 264 264 264 264 265
258 257 258 258 258 258 258 259 259 259 259 259 259 260 260 259 259 259 259 259 259 259 259 260 260 260 261 262 262 263 264 264 264 263 263 263 263 263 263 262 262 262 261 261 261 262 262 262 262 262 262 262 261 262 261 261 261 261 260 260 260 260 260 260 260 260 260 260 260 260 260 261 261 261 262 262 263 263 263 263 263 263 264 264 264
258 257 257 258 258 258 258 259 259 259 259 259 259 259 259 259 259 259 259 259 259 259 259 259 259 259 260 261 261 262 262 263 262 262 262 262 262 262 262 262 262 262 261 261 261 261 262 262 262 262 262 262 261 261 261 260 260 260 260 259 259 259 259 260 260 259 259 259 259 259 260 260 260 260 261 261 262 262 262 262 262 263 263 264 264
258 257 257 257 257 258 258 259 259 259 259 259 259 259 259 259 259 259 259 259 259 259 259 259 259 259 259 260 260 261 261 261 261 261 261 261 261 261 261 261 261 261 261 261 261 261 261 261 261 261 261 261 261 260 260 260 259 259 259 259 258 258 259 259 259 259 259 259 259 259 259 259 259 260 260 260 260 261 261 262 262 263 263 263 263
257 257 257 257 257 258 258 258 258 258 259 259 259 259 259 259 259 259 259 259 260 260 260 259 259 259 260 260 260 260 260 261 261 261 261 261 261 261 261 260 260 260 260 260 260 260 260 261 261 260 260 260 260 259 259 259 259 259 258 258 258 258 258 259 259 258 258 258 258 258 258 258 258 259 259 259 260 260 261 261 262 262 262 262 263
257 256 256 256 257 257 258 258 258 258 258 258 258 258 259 259 259 259 259 259 259 259 259 259 259 259 260 260 260 260 260 260 260 260 260 260 260 260 260 260 260 260 260 260 259 259 259 259 259 259 259 259 259 259 259 259 258 258 258 258 258 258 258 259 258 258 258 258 257 257 257 258 258 258 259 259 260 260 260 261 261 261 261 262 262
257 257 257 257 257 257 257 258 258 258 258 258 258 258 258 258 258 258 259 259 259 259 259 259 259 259 259 260 260 260 260 260 259 260 260 260 260 260 259 259 259 259 259 259 259 258 258 258 258 258 259 259 259 258 259 259 258 258 258 257 257 258 258 258 258 258 257 257 257 257 257 257 258 258 258 259 259 260 260 260 260 260 261 261 262
256 257 257 257 257 257 257 257 257 258 258 258 258 258 258 258 258 258 258 258 258 258 259 259 259 259 259 259 259 259 259 259 259 259 259 259 259 259 259 259 259 259 259 259 258 258 258 258 257 258 258 258 259 259 259 259 259 258 258 258 257 258 258 258 257 257 257 257 257 257 257 257 258 258 258 259 259 259 259 259 260 260 260 261 261
256 256 256 256 256 257 257 257 257 257 257 257 257 257 257 257 257 258 258 258 258 258 258 258 258 258 258 258 258 258 258 259 259 259 259 259 259 259 259 259 259 259 259 259 259 258 258 258 258 258 258 258 258 259 259 259 259 259 259 259 258 258 258 258 257 257 257 257 257 257 257 257 257 258 258 258 258 258 259 259 259 260 260 260 260
256 256 256 256 256 256 256 256 256 257 257 257 257 257 257 257 257 257 257 257 257 258 258 258 258 258 258 258 258 258 258 258 258 258 259 259 259 259 259 259 259 259 259 259 259 259 258 258 258 258 258 258 259 259 259 259 259 259 259 259 259 259 259 258 257 256 257 257 257 257 257 257 257 257 257 257 258 258 258 258 259 259 259 259 260
256 256 256 256 256 256 256 256 256 256 256 256 257 257 257 257 257 257 257 257 257 257 258 258 258 258 258 258 258 258 258 258 258 258 258 258 258 258 258 258 259 259 259 259 259 259 259 259 259 258 259 259 259 259 259 259 259 259 259 259 259 259 259 258 257 256 256 257 256 256 256 256 256 257 257 257 257 257 258 258 258 258 259 259 260
255 255 256 256 256 256 256 256 256 256 256 256 256 257 257 257 257 257 257 257 257 257 257 257 258 258 258 258 258 258 258 258 258 258 258 258 258 258 258 258 258 258 259 259 259 259 259 259 259 259 259 259 259 259 259 259 259 259 259 259 259 259 259 258 257 256 256 256 256 256 256 256 256 257 256 257 257 257 257 257 258 258 259 259 260
255 255 255 255 255 256 255 255 256 256 256 256 256 256 256 256 257 257 257 257 257 257 257 257 257 257 258 258 258 258 258 258 258 258 258 258 258 258 258 258 258 258 258 258 258 259 259 258 258 258 259 259 259 259 259 259 259 259 259 259 259 259 259 258 258 257 257 256 256 256 256 256 256 256 256 256 256 257 257 258 258 258 259 259 260
255 255 255 255 255 255 255 255 256 256 256 256 256 256 256 256 256 256 257 257 257 257 257 257 257 257 257 257 257 257 257 257 257 257 257 257 257 258 258 258 258 258 258 258 258 258 258 258 258 258 258 258 259 259 259 259 259 259 259 259 259 259 259 258 258 257 257 256 256 255 255 255 255 256 256 256 257 257 257 258 258 258 259 259 260
Wind_Speed
7 9 11 13 16 18 19 21 22 23 23 24 24 24 25 25 26 25 25 24 24 24 24 23 24 24 24 24 23 22 22 22 21 20 20 19 18 17 17 17 17 17 16 15 14 12 13 13 13 11 10 9 8 7 7 7 5 5 5 5 6 7 9 9 7 8 14 16 18 20 20 22 23 23 26 29 30 30 30 30 30 30 29 28 27
5 8 11 13 16 17 19 20 22 23 24 24 25 25 26 26 26 26 25 24 24 25 25 24 23 23 24 23 23 22 22 22 20 20 19 19 18 17 16 16 17 16 15 15 13 12 12 13 13 12 11 11 10 9 9 9 8 8 8 6 6 7 6 7 7 7 11 16 18 19 18 20 22 23 24 27 28 29 30 31 30 29 28 28 28
6 8 11 13 15 17 18 20 21 23 23 24 25 25 25 25 25 26 26 25 25 25 24 24 23 23 23 23 22 22 22 21 20 19 19 18 18 17 16 16 16 16 15 14 13 12 13 13 13 11 10 11 10 10 10 10 9 10 9 7 7 6 5 6 7 7 10 14 16 17 18 19 20 22 23 24 26 27 29 29 29 29 29 30 30
7 10 11 13 15 17 18 20 21 22 23 24 25 25 25 25 25 25 26 26 25 24 24 24 23 23 23 23 22 22 21 21 20 19 18 18 18 17 16 16 16 16 16 15 13 13 13 14 13 11 10 11 11 11 11 11 10 10 9 7 6 6 5 5 5 6 8 12 13 15 17 18 19 20 22 24 26 26 26 27 29 31 31 31 31
7 10 13 14 15 16 18 20 21 23 24 24 25 25 25 25 25 25 26 26 25 24 24 24 24 24 24 23 23 22 21 21 21 20 19 19 18 18 18 18 17 17 16 15 14 13 13 14 12 11 11 12 12 11 11 11 10 9 8 7 6 6 6 6 6 6 8 11 14 16 16 17 19 20 21 24 26 26 26 27 29 30 32 33 34
9 12 14 16 17 17 18 20 22 23 25 25 25 25 26 26 26 26 26 26 25 25 25 25 25 25 24 24 24 23 22 21 21 21 20 20 19 19 19 18 17 17 17 16 15 14 13 13 12 11 12 12 11 10 10 11 10 9 8 7 8 8 8 8 8 8 9 11 13 15 16 17 19 19 20 21 23 24 26 28 30 30 31 34 36
12 14 16 18 18 18 19 21 22 24 25 26 26 26 26 26 26 25 25 26 26 26 26 26 25 25 25 25 24 23 23 22 22 21 20 20 20 19 19 18 18 18 17 16 15 13 13 13 12 12 12 11 10 9 10 10 9 9 9 8 9 9 9 9 9 9 10 11 11 13 15 15 16 17 19 19 19 19 22 26 31 32 32 33 36
15 17 18 19 19 19 19 20 22 24 25 26 27 27 27 27 27 26 26 26 27 27 27 27 26 26 25 25 24 23 24 24 22 21 20 20 20 19 18 18 18 18 17 16 15 14 14 14 14 13 12 12 11 11 10 9 8 8 8 8 8 7 7 7 8 7 7 8 9 10 12 13 14 16 18 20 20 20 22 23 26 30 32 33 34
17 19 20 20 20 20 20 21 22 23 25 26 26 27 27 27 27 27 27 27 27 27 27 27 27 27 26 25 24 23 24 23 22 21 21 20 19 19 19 18 17 17 16 16 15 14 15 15 14 13 13 13 13 12 11 10 9 9 8 7 6 6 6 5 6 6 6 7 8 10 12 13 14 16 19 20 20 22 24 24 23 27 31 32 33
18 20 21 21 21 21 21 22 22 23 25 26 26 27 27 28 28 28 28 28 27 27 27 27 27 26 26 25 24 23 23 21 20 21 21 20 18 18 18 17 16 16 16 16 15 14 14 13 11 10 11 11 10 9 10 10 10 9 8 7 6 6 5 6 6 7 8 9 10 11 13 15 17 18 19 21 22 23 25 24 24 27 28 27 30
18 20 21 21 22 22 23 23 23 24 24 25 26 27 27 28 28 28 28 28 27 27 26 26 25 25 25 25 24 23 21 19 19 20 20 19 18 17 17 16 16 16 15 15 15 14 13 11 9 8 8 8 7 7 7 8 8 8 7 7 7 7 7 8 8 8 9 10 13 13 13 16 20 21 20 22 23 23 24 23 22 24 24 20 22
18 19 21 21 23 23 24 25 25 24 24 24 25 26 27 28 28 27 27 27 26 27 26 26 25 24 25 25 24 23 20 17 18 19 19 18 17 16 16 15 15 16 15 14 13 12 12 11 10 9 7 7 7 8 8 8 9 8 8 7 6 6 6 7 8 10 11 12 14 16 14 16 21 22 22 23 24 25 24 22 20 20 21 19 19
20 20 21 22 23 23 24 25 25 24 24 24 25 26 26 27 26 26 26 26 26 27 26 25 24 24 25 25 24 23 20 17 17 17 17 16 15 15 15 15 15 15 14 14 12 12 11 11 10 8 7 7 9 9 10 10 10 10 9 7 6 6 5 4 5 7 9 11 13 16 17 17 20 24 24 23 25 26 23 22 22 21 21 22 23
21 22 22 22 22 23 24 24 24 23 23 24 25 25 26 25 25 25 25 26 27 26 25 25 23 22 23 25 25 23 19 16 16 16 16 15 14 14 15 16 15 14 14 13 12 11 11 11 11 8 5 8 11 12 12 12 11 11 10 9 8 7 6 4 4 5 7 9 12 16 18 18 21 23 24 23 25 26 24 24 25 24 25 26 26
21 21 21 22 21 21 22 23 23 23 23 24 25 25 24 24 23 23 24 25 26 25 24 23 21 21 23 24 24 22 18 16 16 17 16 16 14 14 14 15 14 14 13 13 11 10 10 11 10 7 4 8 12 13 13 14 13 12 12 11 10 10 8 7 7 7 9 11 13 17 19 20 21 22 23 23 24 25 25 25 26 26 27 26 25
22 21 21 20 20 19 20 21 22 22 22 23 24 24 23 23 22 23 24 24 25 25 24 22 21 21 22 22 22 21 18 16 16 16 16 16 14 14 14 14 14 14 13 12 10 9 9 9 8 5 4 8 12 13 13 13 13 13 14 14 13 12 10 9 8 9 12 14 14 16 17 18 19 20 21 22 22 23 24 24 25 25 24 22 22
21 20 20 18 17 17 17 19 20 21 22 23 23 23 23 22 21 22 24 24 24 24 24 22 20 20 20 20 21 20 18 16 16 16 16 16 15 14 14 14 14 13 12 12 10 9 9 8 6 5 8 10 12 13 13 13 13 13 14 15 16 15 14 13 13 15 16 16 15 15 16 17 17 18 19 18 18 21 23 23 24 24 21 18 17
20 18 17 16 15 15 15 16 18 20 21 21 22 22 22 22 21 22 24 24 24 24 24 23 21 18 17 17 19 19 18 17 16 16 16 14 14 13 12 12 13 13 13 13 11 9 9 9 8 9 10 11 11 12 13 13 13 12 13 15 16 17 18 19 21 20 19 17 17 17 18 18 18 17 17 17 17 18 20 21 24 24 21 17 17
19 16 14 13 12 12 13 15 17 19 20 20 21 22 22 22 21 23 24 24 24 23 24 25 23 20 17 16 17 18 19 18 17 16 14 12 11 11 9 10 12 13 13 13 12 10 9 8 8 8 9 10 11 12 13 13 12 11 12 12 13 16 19 22 22 21 21 21 21 21 20 18 17 16 16 16 15 15 16 19 22 24 22 22 22
17 14 12 11 11 11 12 13 15 17 18 18 19 21 21 22 22 23 24 24 24 23 23 24 23 20 18 16 16 17 18 18 17 16 14 12 9 9 9 10 11 12 12 11 10 9 7 5 4 6 9 10 12 12 12 12 11 11 10 10 12 17 20 20 19 18 19 21 21 21 20 18 17 16 17 17 17 17 18 19 21 23 23 24 25
16 13 11 11 10 10 11 13 14 15 15 16 18 20 21 21 22 23 24 23 23 23 22 22 21 19 17 16 16 16 17 18 17 16 15 13 11 10 11 11 10 10 10 9 8 6 4 1 3 6 10 12 12 11 11 11 9 8 8 10 13 15 17 17 16 16 17 18 19 18 18 18 18 18 19 20 21 21 22 22 21 21 21 23 25
15 12 11 10 10 10 11 12 13 14 15 16 18 19 20 21 21 22 23 23 23 22 21 21 21 20 18 16 17 17 16 16 16 15 15 14 13 13 12 11 9 8 9 8 6 5 4 4 6 9 12 12 11 11 11 9 7 6 7 10 11 11 11 12 13 14 15 16 17 17 17 18 19 20 22 23 23 23 23 22 22 22 22 22 23
13 10 9 10 10 10 11 12 13 14 15 16 18 18 19 20 20 21 22 23 22 21 20 20 21 20 19 17 16 15 15 15 15 14 14 14 14 13 12 10 9 8 9 7 6 5 5 7 9 11 11 11 11 11 9 8 8 8 9 10 9 9 10 11 11 12 13 14 15 16 16 17 19 21 23 24 24 24 23 23 23 24 24 24 24
12 9 9 9 10 10 12 13 14 15 16 17 18 19 18 19 18 18 20 21 22 21 19 19 19 19 19 17 15 14 13 13 13 12 12 13 13 12 11 10 9 8 8 6 5 5 6 8 9 10 10 10 11 11 9 8 9 9 10 10 10 10 11 12 12 12 13 14 14 15 17 18 19 21 23 23 23 23 23 23 23 23 24 25 26
11 10 9 10 10 11 13 15 16 17 17 18 19 18 18 19 19 18 18 19 20 20 18 18 18 18 17 16 15 13 12 11 11 11 12 12 12 11 11 10 10 9 7 6 6 6 7 9 9 9 9 9 10 11 10 10 10 11 12 12 12 12 13 14 14 15 15 15 15 16 18 19 20 21 22 22 22 23 24 25 26 26 26 27 28
11 9 9 10 11 12 14 16 16 17 17 18 19 18 18 19 19 19 18 18 18 18 18 17 17 17 16 15 13 12 11 11 10 11 12 12 11 11 11 10 10 8 7 6 7 8 9 10 10 8 8 9 11 11 10 10 12 13 14 14 14 14 15 15 16 15 15 14 15 16 18 20 21 22 22 21 22 23 24 26 28 29 29 30 31
11 10 10 10 12 14 16 17 17 17 18 18 19 19 19 19 20 19 18 17 16 16 16 16 16 16 15 13 12 11 10 10 11 12 13 13 11 10 10 10 9 7 7 8 9 11 11 11 9 6 7 10 11 11 10 12 14 15 15 15 15 15 14 14 13 12 12 13 14 16 18 20 22 23 23 23 23 23 23 24 27 28 29 28 28
11 11 12 12 13 16 17 17 17 18 19 20 20 19 19 21 22 21 17 15 14 14 15 15 15 14 13 12 11 11 10 12 13 13 13 13 12 10 10 9 8 8 9 10 10 11 11 9 7 8 10 12 13 13 13 15 16 16 16 15 15 15 14 14 13 12 11 13 16 19 21 23 23 24 24 24 24 23 22 22 23 26 26 25 22
11 12 14 15 15 16 16 17 16 16 17 19 20 19 19 20 22 22 20 17 15 14 14 15 13 13 13 12 11 10 11 12 11 10 10 10 10 10 9 9 9 9 10 10 10 10 9 8 10 12 14 15 16 16 17 18 18 18 18 17 17 17 16 15 15 14 13 16 19 22 23 24 24 25 25 25 25 23 22 22 22 24 23 21 20
12 13 16 17 16 16 16 16 15 14 14 16 18 19 19 18 19 20 20 19 18 17 16 15 12 10 12 12 11 11 10 9 9 8 9 9 9 8 8 8 8 9 9 9 10 10 9 10 12 14 15 16 17 18 19 20 20 20 19 19 19 18 17 16 16 15 16 18 20 21 22 23 24 25 25 24 24 23 22 22 21 21 22 21 22
14 16 18 17 15 16 16 15 14 14 13 13 14 15 17 17 17 16 15 15 15 16 16 16 14 12 10 9 9 9 9 8 8 8 8 8 8 9 9 8 8 9 9 9 9 9 10 11 13 13 14 15 16 17 17 18 19 19 19 19 19 18 17 18 17 17 18 19 20 21 22 22 23 23 21 21 22 24 24 23 21 20 21 21 22
15 17 18 16 15 15 15 14 14 14 13 13 13 12 13 14 14 13 12 12 13 13 12 12 13 13 12 10 10 9 9 8 8 9 9 10 10 10 9 9 10 10 8 7 8 9 10 11 12 12 13 14 15 15 16 16 17 18 18 19 18 17 18 18 17 17 18 18 20 20 21 21 21 20 19 20 22 23 24 23 22 22 22 22 21
16 17 18 17 15 15 15 15 15 14 14 13 13 12 11 11 11 10 11 11 11 11 12 11 10 10 10 10 10 9 9 9 9 10 11 11 11 10 9 9 10 10 9 8 9 10 10 10 11 11 12 13 13 14 14 15 15 16 16 16 16 17 18 17 17 17 17 17 18 19 20 20 20 20 21 21 21 21 23 23 24 24 23 23 22
17 16 17 17 16 15 15 14 14 14 14 13 13 12 11 10 9 9 9 8 8 10 11 11 10 9 9 8 8 9 9 9 10 11 11 10 10 8 6 5 6 8 9 10 11 11 11 11 10 10 11 12 13 13 13 14 14 15 15 16 16 17 18 18 18 18 17 17 18 19 20 20 20 21 23 22 21 22 23 23 24 25 24 23 23
17 16 16 17 17 16 15 14 14 14 14 13 12 11 10 10 9 9 9 8 9 11 12 11 11 11 10 9 8 8 9 9 9 10 10 10 8 6 4 5 7 9 11 12 12 12 12 11 10 11 12 13 13 13 14 14 15 16 16 17 18 18 19 19 19 19 19 19 20 20 20 20 20 20 22 23 23 24 24 23 24 25 25 23 23
19 18 17 17 17 15 15 15 14 14 12 11 11 10 10 10 10 10 10 10 10 11 11 11 10 10 10 10 9 8 8 8 8 8 9 9 8 6 7 9 11 11 12 12 12 12 12 11 11 12 12 13 14 14 14 15 16 16 17 17 18 18 19 20 20 20 20 20 21 21 21 20 20 20 22 23 23 22 23 24 25 24 23 22 22
19 18 17 16 15 13 13 13 13 12 11 10 10 10 10 10 10 10 10 11 11 11 11 10 9 9 11 11 10 9 9 9 8 7 8 8 9 9 11 12 12 12 12 12 12 13 13 12 12 12 13 14 14 15 15 15 16 17 17 18 18 19 19 19 19 20 21 22 22 22 21 21 21 21 22 23 23 22 24 25 26 25 23 22 23
16 16 15 14 13 12 11 11 11 11 11 11 10 10 10 10 10 10 10 11 11 11 11 12 12 13 13 13 11 10 8 7 7 8 9 10 10 11 12 12 11 12 12 12 12 12 13 13 12 13 13 14 14 15 15 16 17 18 18 19 19 19 19 20 20 21 22 23 23 22 22 21 22 22 22 22 24 25 26 26 26 26 26 25 24
14 14 13 12 12 11 11 10 10 10 11 11 10 10 9 9 10 10 10 10 11 11 12 12 13 14 13 12 12 11 9 9 10 11 12 12 12 12 11 11 11 12 11 12 12 13 13 13 13 14 14 15 15 15 16 16 17 18 18 19 19 19 20 21 22 22 23 23 23 23 22 23 23 23 22 23 25 26 27 27 27 27 27 27 27
12 12 12 11 11 10 9 10 10 10 10 10 9 9 9 10 10 9 10 10 10 11 11 12 12 13 12 12 13 13 12 13 13 13 12 12 12 11 11 11 11 11 11 12 13 13 13 13 13 14 14 15 15 16 16 17 17 18 18 19 19 20 21 21 22 23 23 23 23 23 23 24 24 24 23 24 25 26 27 27 28 27 27 28 29
11 11 11 10 9 9 8 9 10 10 10 9 9 9 9 9 9 9 9 9 10 10 11 11 11 11 11 12 12 12 12 12 12 11 11 11 11 11 11 11 10 10 11 12 12 13 13 13 13 13 14 14 15 15 16 17 17 18 19 19 20 21 22 22 22 23 23 23 23 23 24 24 23 23 24 24 25 25 26 27 28 28 28 29 30
10 10 10 10 9 9 9 9 9 9 9 8 8 9 8 8 8 8 9 9 9 9 10 10 10 10 10 10 10 10 10 11 10 10 10 10 10 10 9 9 9 9 10 11 11 12 12 12 12 13 14 14 14 15 16 17 17 18 19 20 21 22 23 23 23 23 23 23 23 24 24 24 23 24 25 25 25 26 26 27 28 29 29 31 30
9 9 9 9 9 9 9 9 8 8 8 8 8 8 8 8 8 8 8 9 9 9 9 10 9 9 9 9 9 9 10 10 10 10 9 9 9 9 9 8 8 9 9 9 10 11 11 12 13 14 14 14 14 15 16 17 18 18 19 20 21 22 23 24 24 23 23 24 25 25 26 25 25 25 25 25 25 26 28 28 29 30 30 31 31
9 8 8 8 8 8 9 9 8 8 8 8 8 8 8 8 8 8 8 8 8 8 9 9 9 9 9 9 9 9 9 9 9 9 9 9 9 9 9 9 9 9 9 9 10 11 11 12 13 14 15 14 15 15 16 16 17 18 19 20 21 22 22 23 23 24 24 25 26 26 26 26 26 26 26 25 25 28 30 30 30 31 30 30 31
8 7 8 8 8 8 8 8 8 8 8 7 7 7 7 7 7 7 7 7 7 7 7 7 8 8 8 8 8 8 8 9 9 9 9 9 9 9 9 9 9 9 10 10 11 11 12 14 15 16 16 16 16 17 17 17 17 18 18 19 20 22 22 23 23 23 23 24 25 26 25 26 26 26 26 26 27 28 31 31 31 31 32 32 33
8 7 8 8 8 7 8 8 7 7 7 7 6 6 6 6 6 6 6 6 6 6 6 6 7 7 7 7 8 8 8 8 9 9 9 9 9 9 9 10 10 10 11 11 12 13 14 14 16 17 18 18 18 18 18 18 18 18 19 19 20 21 22 22 21 21 21 22 24 25 25 27 27 27 27 28 28 29 31 31 31 32 34 34 34
8 8 7 7 7 7 7 7 7 6 6 6 6 6 6 6 6 6 6 6 6 6 7 7 7 7 8 8 8 9 9 9 10 10 10 10 10 10 10 11 11 12 12 12 13 14 15 15 16 18 19 19 19 19 19 19 19 19 19 19 20 21 21 20 20 21 21 22 23 25 27 29 30 30 29 29 29 30 32 32 33 34 35 35 34
7 7 7 7 7 7 7 7 7 7 7 7 7 7 7 7 7 7 7 7 8 8 8 8 8 8 9 9 9 10 10 10 11 11 11 11 11 11 12 12 12 13 14 14 14 15 15 16 17 18 18 19 20 20 20 20 20 20 20 20 20 20 20 19 20 21 23 23 25 26 28 29 30 30 29 30 31 33 34 36 36 37 36 34 33
8 8 8 8 8 8 8 8 8 8 8 9 9 9 9 9 9 9 9 9 9 9 9 9 10 10 10 10 10 11 11 12 12 12 12 13 13 13 13 14 14 15 15 16 16 17 17 17 18 19 19 20 21 22 22 22 22 22 21 21 20 20 20 19 20 22 23 24 25 26 27 28 29 30 31 32 34 35 36 36 36 36 34 33 31
9 9 9 9 9 10 10 10 10 10 10 10 10 10 11 11 11 11 11 11 11 10 10 11 11 11 11 11 12 12 12 13 13 14 14 14 14 14 15 15 16 16 17 18 19 19 19 19 20 20 21 22 22 23 23 24 23 23 22 21 21 21 20 20 21 22 22 24 25 26 27 29 31 32 33 33 34 33 33 34 33 33 32 31 31
10 10 10 11 11 11 11 11 11 11 11 11 12 12 12 12 12 12 12 12 12 12 12 12 12 12 12 13 13 14 14 15 15 15 15 16 16 16 16 17 18 18 19 20 20 21 21 21 21 22 22 23 23 24 24 24 24 24 23 22 21 21 21 21 22 22 22 23 25 26 28 30 31 32 33 33 33 32 33 33 33 32 32 32 31
Wind_Direction
187 179 180 183 180 176 175 175 174 171 171 172 170 167 167 164 162 160 157 156 156 153 149 147 146 145 143 143 144 144 144 145 147 149 146 140 136 134 134 135 130 126 123 119 116 117 117 114 112 110 114 117 112 112 111 104 102 92 77 67 46 31 21 15 2 322 321 331 335 337 341 340 337 340 342 340 340 339 338 341 344 345 348 349 346
181 170 168 170 168 168 168 167 166 164 163 163 162 160 159 157 157 157 154 152 153 150 147 144 143 143 142 141 141 140 140 141 143 144 142 137 132 129 129 129 126 122 119 114 111 113 113 109 105 105 108 107 99 99 99 93 93 90 79 78 67 50 40 22 5 339 326 330 334 337 341 341 338 339 341 340 340 338 336 339 344 346 345 342 338
167 163 161 159 157 159 159 158 158 157 154 153 152 152 152 152 153 152 150 150 148 146 145 143 143 142 140 137 136 135 134 134 136 137 134 130 127 124 124 123 121 117 113 111 109 107 106 102 98 98 102 99 88 86 88 83 83 83 71 66 62 47 40 34 16 351 329 325 332 338 340 340 338 337 340 343 341 338 337 339 342 340 338 338 338
157 157 153 150 151 151 150 151 152 150 148 146 145 145 145 146 147 146 145 144 142 140 140 140 139 136 133 130 128 127 127 127 128 127 126 125 122 118 116 115 113 111 108 106 104 103 101 97 94 94 96 92 81 79 84 81 78 77 67 60 57 42 36 42 23 353 331 322 330 340 340 338 338 341 348 347 341 340 342 341 338 337 338 340 339
146 146 143 140 141 142 143 145 145 142 141 140 139 140 140 140 140 139 137 135 134 133 132 131 131 128 124 123 121 120 120 121 121 118 116 116 115 112 110 108 106 105 104 101 98 96 95 93 92 93 90 83 76 76 81 81 77 73 66 58 51 48 48 40 19 2 348 333 334 339 340 341 341 345 351 347 341 343 343 339 337 337 338 339 339
132 132 133 131 130 132 135 137 137 135 134 134 134 135 135 135 134 132 132 130 128 127 126 124 123 121 118 116 115 113 113 112 112 111 110 109 108 107 106 105 103 102 100 98 96 93 92 91 89 88 84 76 71 72 75 74 66 54 46 41 38 40 39 29 17 12 2 348 343 341 340 343 344 343 347 347 343 341 339 336 336 338 339 339 340
123 122 124 122 119 122 125 128 130 130 130 130 131 131 131 131 129 128 128 127 125 123 121 119 117 116 114 112 111 111 110 108 105 105 105 105 104 102 101 100 99 98 96 94 92 89 89 90 87 83 79 73 70 71 73 72 63 49 36 31 33 34 32 26 17 13 3 351 348 344 338 341 343 338 339 343 343 341 341 340 335 337 340 338 337
117 114 114 111 109 113 118 122 125 126 126 127 127 127 127 127 126 126 126 123 121 121 119 117 116 114 113 113 113 113 111 107 104 104 102 101 100 98 95 94 92 92 92 90 85 78 75 80 79 70 63 63 64 64 66 64 62 54 38 28 29 31 32 29 16 7 358 345 342 339 332 331 336 335 336 343 346 343 344 342 333 332 336 335 335
110 108 105 102 102 107 112 114 117 120 121 121 121 121 122 123 123 123 122 119 118 118 118 117 115 114 113 113 112 111 107 103 103 104 103 99 99 98 95 93 90 89 89 88 84 74 66 68 68 59 56 59 57 54 55 53 50 43 31 25 27 25 26 22 8 357 345 335 333 334 330 326 331 336 337 343 345 338 338 340 334 332 333 332 334
99 100 98 98 101 105 107 108 110 112 113 114 116 118 119 120 120 119 117 116 117 116 116 116 115 114 113 111 109 105 103 102 104 106 105 102 101 101 99 97 97 95 92 89 88 82 75 69 60 56 65 67 58 54 55 51 45 38 31 31 26 16 10 1 356 353 342 335 334 335 333 328 331 337 337 337 339 337 338 339 334 333 335 332 331
88 91 92 96 101 102 102 104 104 104 106 108 112 114 116 117 116 115 114 114 115 115 114 112 112 112 111 107 103 99 98 104 108 108 107 107 106 104 102 102 103 101 97 93 91 89 87 80 59 50 63 65 56 59 63 56 53 50 46 43 29 13 4 349 344 347 344 336 333 333 332 326 327 332 334 334 336 335 336 335 331 332 336 334 327
82 85 87 92 97 99 99 100 99 98 101 104 107 110 112 112 112 112 112 112 113 112 110 109 108 109 107 103 97 92 92 102 111 111 108 108 108 106 103 102 103 101 97 93 92 92 94 89 69 49 42 42 42 49 53 53 58 60 55 50 35 14 0 345 337 338 338 332 327 326 329 327 324 325 329 331 330 329 329 329 330 328 328 327 318
82 83 84 86 90 93 97 98 95 96 99 102 104 106 107 107 108 109 110 110 109 107 105 105 105 105 104 100 94 88 86 93 106 111 109 107 108 107 102 98 98 98 96 92 90 92 94 91 78 57 30 29 35 36 37 40 47 51 47 42 30 13 1 350 336 331 329 325 320 317 320 323 319 319 325 326 322 322 323 322 324 323 318 318 313
79 80 82 83 86 90 94 95 94 95 99 101 102 102 101 101 103 107 110 110 108 105 104 104 104 104 103 98 92 86 81 87 101 108 105 101 104 107 104 100 97 96 96 95 92 93 96 93 84 66 27 24 30 26 24 23 26 31 31 27 19 14 15 13 1 341 331 326 316 309 312 316 314 315 323 326 320 317 316 314 316 315 311 310 309
69 71 76 80 84 88 91 95 96 98 101 102 101 99 99 100 102 105 108 108 107 106 106 105 103 101 100 97 92 84 76 79 95 103 100 96 98 104 106 104 100 96 95 93 88 88 95 99 96 84 40 29 28 21 15 10 10 14 15 13 12 16 27 28 11 348 330 320 312 308 310 314 316 317 322 325 320 317 315 313 311 310 308 307 309
60 58 62 68 77 84 91 97 101 102 105 106 103 100 99 99 102 106 106 106 106 106 105 103 101 99 98 98 93 84 72 71 86 99 100 96 96 99 100 99 96 94 93 90 83 76 78 90 101 93 48 38 29 17 10 6 6 8 6 5 7 11 23 24 356 333 327 323 319 316 317 321 323 322 323 324 322 321 320 315 314 315 311 308 311
54 52 51 53 64 77 88 98 103 107 110 108 105 104 103 103 106 109 108 106 106 106 106 105 102 100 99 98 94 86 73 66 77 94 101 99 97 97 98 97 94 91 92 88 78 67 60 62 66 47 37 37 24 13 10 7 7 7 1 359 359 360 4 356 339 336 338 337 337 339 338 339 336 329 330 334 334 332 326 318 320 323 318 312 314
44 46 46 45 53 68 84 97 104 108 109 109 108 109 108 109 112 112 111 108 107 110 111 109 106 102 97 93 91 88 78 67 69 84 96 101 102 103 104 101 96 92 93 89 79 67 54 43 39 33 29 26 16 10 11 7 6 5 358 354 352 349 348 343 339 342 344 343 348 351 346 343 340 337 340 343 342 340 335 329 331 332 325 318 318
30 35 43 48 53 64 79 93 101 105 107 108 111 113 112 113 115 115 113 110 109 112 113 111 107 103 97 89 86 87 83 73 66 72 84 95 103 106 103 94 89 88 89 87 82 76 64 48 39 25 10 9 10 9 9 7 3 1 358 353 344 338 337 336 337 341 343 344 347 345 341 342 344 344 344 342 338 339 337 331 332 334 330 322 320
20 28 44 57 63 68 79 88 95 101 106 110 114 117 116 116 117 116 115 114 113 112 113 112 111 109 105 98 87 82 82 79 69 66 73 81 87 93 87 79 81 84 85 86 88 88 83 64 23 349 348 2 11 10 9 7 2 1 3 354 336 328 328 330 335 341 343 341 337 335 337 343 345 343 342 341 339 338 333 328 327 329 327 320 317
18 25 41 57 70 78 83 89 94 98 105 112 117 118 118 118 119 119 118 118 116 115 114 112 109 107 105 98 87 78 79 82 76 66 65 66 64 68 69 66 71 83 87 88 93 94 87 39 323 340 357 9 15 14 12 9 3 1 357 340 326 323 324 328 335 340 335 329 328 332 337 340 340 341 341 339 338 335 332 332 333 333 329 320 315
18 25 39 52 68 82 89 95 99 102 107 113 115 116 116 117 120 122 122 120 118 117 116 113 108 104 99 92 84 75 72 78 79 71 64 60 57 58 60 56 59 75 82 79 73 60 36 6 355 360 5 11 16 18 16 11 7 359 343 332 325 324 325 324 326 326 323 323 329 335 339 340 338 337 336 334 333 334 334 337 339 336 329 321 315
19 27 42 52 63 78 91 98 101 104 108 111 111 112 113 114 116 119 121 120 118 117 117 116 113 108 103 96 88 78 69 70 73 70 64 60 57 57 59 55 49 57 69 68 54 35 18 4 358 358 4 11 13 15 16 14 7 358 345 336 329 322 318 316 316 318 321 327 336 339 340 339 335 331 330 330 332 335 338 337 336 332 327 322 317
23 30 44 57 63 75 87 94 99 101 104 107 107 106 107 109 111 113 116 116 114 114 117 118 115 111 107 100 92 86 79 71 65 60 61 64 62 57 58 55 47 50 64 64 45 25 8 355 354 0 9 11 7 8 16 16 8 0 351 345 341 334 330 329 331 333 336 341 345 341 335 332 330 328 329 330 331 335 336 335 332 330 326 322 319
25 33 47 58 64 74 83 89 94 96 96 99 100 99 101 103 103 104 107 108 108 109 112 114 113 109 105 98 92 89 86 77 62 49 49 57 59 55 53 51 48 50 59 54 32 12 1 360 6 15 15 7 3 10 17 12 4 0 358 356 354 351 349 349 349 349 349 347 343 336 331 330 330 329 329 330 332 335 336 334 333 334 334 331 327
22 35 50 55 61 73 80 82 86 90 91 92 92 92 97 99 97 97 96 96 99 103 104 105 104 102 99 96 95 93 85 73 57 40 37 39 42 44 44 42 43 46 46 35 14 1 6 18 27 24 9 2 8 16 15 6 0 2 4 5 5 3 2 360 357 354 349 344 338 333 330 329 328 330 332 333 333 336 337 334 333 336 339 337 332
20 35 50 55 58 67 72 73 76 80 85 87 86 86 90 91 90 89 89 90 92 95 96 97 96 96 95 94 95 94 81 64 48 35 32 30 28 29 31 31 32 31 23 12 359 360 18 36 38 18 359 4 14 19 12 5 5 7 10 11 11 10 7 2 356 349 342 338 335 331 328 328 330 333 335 335 334 335 336 334 331 332 336 336 329
26 37 50 56 56 60 64 67 69 72 76 78 79 79 81 82 81 78 78 85 93 94 92 91 89 91 94 96 97 91 73 52 39 31 28 26 22 21 22 20 15 11 6 358 354 7 29 42 29 7 3 8 15 15 10 9 10 12 13 13 10 9 8 4 359 354 344 338 335 332 331 332 333 334 334 333 332 334 335 334 330 329 331 332 326
31 37 47 52 52 54 58 63 68 71 73 74 76 77 78 80 81 80 76 77 84 90 91 92 94 95 92 89 88 80 62 45 35 28 26 26 23 18 16 11 2 359 359 356 359 15 31 26 11 8 9 10 13 12 8 8 9 10 10 9 8 9 9 5 0 354 343 337 335 334 333 333 332 333 333 330 329 332 334 333 330 329 330 329 322
32 37 44 46 46 50 54 57 64 71 74 76 79 81 80 77 80 83 83 80 78 78 80 84 89 94 91 86 80 72 60 45 33 28 28 27 21 13 10 8 2 2 3 2 8 20 23 15 14 15 12 13 15 11 7 7 6 6 5 5 6 7 4 0 357 349 340 337 335 333 333 332 330 330 330 327 325 328 331 330 329 329 329 327 321
34 38 42 42 41 46 50 50 56 65 73 77 82 86 87 82 77 80 86 85 79 75 76 77 76 73 76 81 79 72 62 46 36 33 26 20 16 14 15 15 12 11 11 9 17 27 24 20 22 19 13 15 16 10 7 7 5 2 359 359 2 3 357 353 351 344 337 335 333 332 332 330 327 326 325 323 322 323 326 328 329 327 326 323 319
36 37 40 41 41 44 47 48 51 58 65 71 76 82 89 88 80 75 76 76 73 73 75 78 77 72 67 67 66 62 52 38 31 27 20 17 19 20 24 26 22 16 12 13 26 35 30 25 27 22 13 14 13 7 5 5 1 358 356 354 355 354 349 346 344 339 336 334 331 330 329 326 323 322 321 320 320 320 322 324 325 325 323 320 317
38 33 35 40 39 39 42 45 47 50 53 57 63 70 77 80 80 80 80 75 71 70 71 74 76 74 69 64 60 54 44 34 27 22 18 19 23 26 36 44 35 21 15 26 39 41 34 30 31 25 14 12 9 3 2 2 357 354 353 349 345 344 343 342 340 336 334 332 328 325 325 323 320 318 316 317 318 317 317 319 320 321 321 319 316
43 34 35 41 40 36 39 44 46 49 50 51 55 60 63 68 77 89 92 80 64 60 64 68 70 67 64 63 58 50 44 38 33 28 21 22 30 34 40 54 45 27 28 40 44 40 35 32 29 21 12 9 8 1 358 357 353 350 348 344 341 340 340 340 338 335 332 329 325 323 323 321 319 317 315 315 315 314 313 314 317 319 319 317 315
44 39 41 45 43 38 41 47 51 52 50 49 50 53 57 63 69 77 81 76 64 58 59 64 65 60 56 57 57 53 52 51 47 40 30 26 31 30 25 39 43 36 36 40 39 36 34 30 22 14 6 3 3 359 354 352 350 348 346 342 340 339 338 338 337 335 331 327 324 322 321 318 316 314 313 312 312 311 310 311 314 316 316 314 312
40 39 41 44 42 38 41 47 50 49 48 50 52 53 58 65 67 69 74 75 71 64 61 65 68 62 58 59 61 62 64 62 55 48 43 36 31 29 38 47 46 39 36 35 31 30 30 24 16 11 4 359 358 355 351 349 347 345 343 340 337 336 336 336 335 331 327 324 321 319 318 316 314 313 312 310 309 308 308 310 312 312 312 311 309
37 34 35 37 37 38 42 45 47 48 51 58 61 60 64 67 68 70 73 72 69 65 64 67 71 66 60 59 61 65 68 66 60 56 55 51 45 44 51 52 46 38 34 29 23 21 21 18 12 7 0 356 353 349 346 345 343 340 338 337 335 333 333 332 329 325 322 320 319 319 318 314 312 312 311 307 306 305 306 308 308 308 308 307 306
39 33 32 33 35 38 42 45 50 54 57 61 64 66 69 71 72 73 73 71 68 66 62 60 58 54 49 49 53 60 64 68 66 58 53 50 47 47 49 49 44 37 31 24 18 14 12 10 5 1 356 352 348 345 343 341 338 336 334 332 331 331 329 327 325 323 322 320 319 319 317 312 310 311 309 305 303 303 305 306 306 305 305 305 303
44 38 34 36 38 37 38 44 52 58 61 61 62 65 68 70 71 72 72 71 68 65 62 58 53 47 41 41 45 49 51 52 51 45 42 43 42 41 41 40 37 33 25 18 13 8 4 3 360 355 352 349 346 344 341 337 335 333 330 328 326 326 325 324 322 322 321 319 318 317 314 312 310 310 307 304 302 303 304 304 304 304 303 303 302
44 39 34 36 39 37 40 49 55 57 60 60 59 62 65 65 65 66 68 69 67 63 62 58 49 41 38 36 36 36 39 43 42 37 35 35 34 32 32 30 27 24 17 10 5 1 357 356 353 350 349 347 343 340 338 334 331 328 326 324 321 319 319 319 318 317 317 317 316 314 312 312 311 310 307 304 302 302 302 302 302 302 301 300 301
46 43 35 37 43 42 47 55 56 56 58 59 58 59 61 59 60 61 62 62 62 60 59 56 48 41 39 37 34 31 33 37 37 32 29 28 24 23 24 22 20 16 9 2 358 354 350 348 346 343 342 339 336 335 333 330 328 325 323 321 318 315 315 316 316 316 315 314 313 312 312 312 311 309 306 305 303 302 301 300 301 301 300 300 301
46 43 36 39 45 47 51 55 56 57 59 59 57 57 56 55 56 55 53 53 53 52 53 51 46 41 38 35 32 30 29 30 30 26 23 22 18 16 15 14 10 6 1 355 350 345 341 339 337 334 331 329 329 330 329 328 327 325 322 320 317 314 314 315 315 315 314 312 311 311 310 310 309 307 306 305 303 302 301 301 301 301 300 300 301
44 42 39 38 39 43 47 50 53 56 57 56 56 54 51 50 51 47 45 46 44 42 43 42 38 36 34 29 26 24 22 21 21 16 12 11 8 4 3 0 357 354 349 346 343 339 334 332 329 326 325 324 325 324 324 325 325 322 319 317 315 312 312 312 312 313 313 311 310 310 310 310 310 309 307 305 303 302 301 301 301 301 300 300 299
40 41 44 42 37 39 41 41 42 45 44 45 47 45 40 39 39 35 34 35 33 31 31 29 26 25 24 20 18 17 13 12 10 5 2 360 357 353 350 347 344 342 340 339 339 336 331 327 324 323 324 326 326 324 323 323 322 319 317 315 312 310 310 311 311 312 312 310 308 309 310 310 310 309 307 305 304 303 302 302 301 301 300 300 299
31 33 37 36 32 32 32 29 29 31 30 29 31 29 26 25 24 21 21 21 21 20 19 16 14 14 12 10 10 8 4 2 359 354 352 350 346 342 340 336 334 335 336 335 335 334 331 328 325 324 326 328 328 327 326 324 322 321 319 316 313 311 311 311 311 311 310 308 307 308 308 308 307 307 306 304 303 302 301 301 301 300 299 299 298
18 19 23 24 22 21 21 18 16 15 15 14 15 12 10 9 7 4 5 6 5 4 4 3 3 3 1 0 0 357 353 350 347 344 342 340 336 333 332 330 330 332 332 332 332 332 330 328 327 326 326 327 327 327 327 326 324 322 321 319 316 315 314 314 313 311 310 309 307 306 305 304 303 303 302 301 301 300 298 298 299 299 298 298 298
4 6 7 7 7 7 6 4 2 0 359 358 357 355 351 350 349 347 347 348 348 347 348 350 350 351 351 351 349 346 342 340 336 334 332 330 328 328 327 327 327 328 327 327 330 329 326 325 326 325 324 324 324 324 324 323 323 322 321 320 320 318 318 319 316 312 309 308 304 302 301 301 301 301 301 301 300 299 297 297 298 297 297 297 296
348 348 348 349 349 347 345 345 344 344 343 342 341 340 337 337 337 336 335 336 336 336 337 338 338 338 339 339 339 337 333 329 327 326 324 323 323 323 324 323 324 324 323 324 325 325 323 323 323 322 322 322 322 322 322 322 321 321 321 321 321 320 321 320 314 306 303 302 301 300 301 301 301 301 300 299 298 297 297 297 297 296 296 295 293
335 335 335 335 333 331 331 330 329 330 329 328 327 327 327 327 328 328 327 327 327 328 328 328 329 329 329 329 329 328 325 323 321 320 319 319 319 320 321 321 322 322 322 321 321 321 320 321 321 321 321 322 322 322 322 321 320 320 321 321 320 320 320 318 312 306 305 304 304 304 304 301 299 298 298 298 298 298 297 297 296 295 294 293 292
325 326 325 325 323 323 323 320 319 319 320 319 319 320 320 319 320 321 321 320 320 321 321 320 321 322 323 324 323 321 319 317 316 315 315 316 317 318 319 319 321 321 320 319 319 318 319 319 320 321 322 323 323 323 322 321 320 320 319 318 317 317 317 316 314 313 312 309 305 303 302 300 298 299 299 299 300 299 296 295 295 294 292 292 291
316 315 314 314 314 314 314 313 314 314 314 314 314 315 314 314 314 315 315 313 313 314 315 316 317 318 318 318 317 315 313 312 312 311 312 313 314 316 317 318 318 318 317 316 316 317 317 318 319 320 321 321 322 322 321 321 320 319 317 316 315 316 316 316 315 314 314 310 304 302 302 301 301 301 300 300 299 297 295 294 293 292 290 290 289